Time,TemperatureF,DewpointF,PressureIn,WindDirection,WindDirectionDegrees,WindSpeedMPH,WindSpeedGustMPH,Humidity,HourlyPrecipIn,Conditions,Clouds,dailyrainin,SolarRadiationWatts/m^2,SoftwareType,DateUTC
2013-11-19 00:01:00,62.7,44.8,29.90,NW,306,6.0,11.0,52,0.00,,CLR,0.00,0.00,VWS V14.01,2013-11-19 05:01:00,
2013-11-19 00:06:00,62.4,44.6,29.90,North,355,6.0,10.0,52,0.00,,CLR,0.00,0.00,VWS V14.01,2013-11-19 05:06:00,
2013-11-19 00:11:00,62.1,44.3,29.90,ESE,107,0.0,7.0,52,0.00,,CLR,0.00,0.00,VWS V14.01,2013-11-19 05:11:00,
2013-11-19 00:16:00,61.9,44.6,29.90,NNE,19,2.0,8.0,53,0.00,,CLR,0.00,0.00,VWS V14.01,2013-11-19 05:16:00,
2013-11-19 00:21:00,61.7,44.9,29.90,NE,42,4.0,6.0,54,0.00,,CLR,0.00,0.00,VWS V14.01,2013-11-19 05:21:00,
2013-11-19 00:26:00,61.6,44.8,29.90,NNE,33,4.0,10.0,54,0.00,,CLR,0.00,0.00,VWS V14.01,2013-11-19 05:26:00,
2013-11-19 00:31:00,61.4,43.6,29.91,North,5,5.0,13.0,52,0.00,,CLR,0.00,0.00,VWS V14.01,2013-11-19 05:31:00,
2013-11-19 00:36:00,61.3,43.5,29.90,North,5,10.0,10.0,52,0.00,,CLR,0.00,0.00,VWS V14.01,2013-11-19 05:36:00,
2013-11-19 00:41:00,61.1,43.4,29.90,NNE,13,4.0,10.0,52,0.00,,CLR,0.00,0.00,VWS V14.01,2013-11-19 05:41:00,
2013-11-19 00:46:00,60.9,42.2,29.90,North,351,5.0,14.0,50,0.00,,CLR,0.00,0.00,VWS V14.01,2013-11-19 05:46:00,
2013-11-19 00:51:00,60.7,41.5,29.90,NNE,28,11.0,17.0,49,0.00,,CLR,0.00,0.00,VWS V14.01,2013-11-19 05:51:00,
2013-11-19 00:56:00,60.6,40.3,29.90,NE,44,4.0,10.0,47,0.00,,CLR,0.00,0.00,VWS V14.01,2013-11-19 05:56:00,
2013-11-19 01:01:00,60.4,40.1,29.90,NE,36,4.0,11.0,47,0.00,,CLR,0.00,0.00,VWS V14.01,2013-11-19 06:01:00,
2013-11-19 01:06:00,60.2,39.9,29.90,NNE,30,7.0,12.0,47,0.00,,CLR,0.00,0.00,VWS V14.01,2013-11-19 06:06:00,
2013-11-19 01:11:00,59.9,39.6,29.90,North,349,6.0,9.0,47,0.00,,CLR,0.00,0.00,VWS V14.01,2013-11-19 06:11:00,
2013-11-19 01:16:00,59.6,39.4,29.91,NE,56,1.0,10.0,47,0.00,,CLR,0.00,0.00,VWS V14.01,2013-11-19 06:16:00,
2013-11-19 01:21:00,59.3,39.6,29.91,ENE,76,2.0,6.0,48,0.00,,CLR,0.00,0.00,VWS V14.01,2013-11-19 06:21:00,
2013-11-19 01:26:00,59.1,39.5,29.91,ENE,65,2.0,8.0,48,0.00,,CLR,0.00,0.00,VWS V14.01,2013-11-19 06:26:00,
2013-11-19 01:31:00,58.7,39.6,29.91,ENE,70,1.0,7.0,49,0.00,,CLR,0.00,0.00,VWS V14.01,2013-11-19 06:31:00,
2013-11-19 01:36:00,58.4,39.8,29.91,East,94,3.0,6.0,50,0.00,,CLR,0.00,0.00,VWS V14.01,2013-11-19 06:36:00,
2013-11-19 01:41:00,58.3,39.8,29.91,NNE,13,3.0,7.0,50,0.00,,CLR,0.00,0.00,VWS V14.01,2013-11-19 06:41:00,
2013-11-19 01:46:00,57.9,39.4,29.92,NNW,339,3.0,6.0,50,0.00,,CLR,0.00,0.00,VWS V14.01,2013-11-19 06:46:00,
2013-11-19 01:51:00,57.6,39.1,29.92,East,89,1.0,4.0,50,0.00,,CLR,0.00,0.00,VWS V14.01,2013-11-19 06:51:00,
2013-11-19 01:56:00,57.4,38.9,29.92,ENE,59,0.0,5.0,50,0.00,,CLR,0.00,0.00,VWS V14.01,2013-11-19 06:56:00,
2013-11-19 02:01:00,57.0,39.1,29.92,NNW,338,2.0,5.0,51,0.00,,CLR,0.00,0.00,VWS V14.01,2013-11-19 07:01:00,
2013-11-19 02:06:00,56.7,39.8,29.92,North,360,3.0,4.0,53,0.00,,CLR,0.00,0.00,VWS V14.01,2013-11-19 07:06:00,
2013-11-19 02:11:00,56.3,38.9,29.92,NNE,13,1.0,6.0,52,0.00,,CLR,0.00,0.00,VWS V14.01,2013-11-19 07:11:00,
2013-11-19 02:16:00,56.1,39.2,29.92,NNE,24,1.0,5.0,53,0.00,,CLR,0.00,0.00,VWS V14.01,2013-11-19 07:16:00,
2013-11-19 02:21:00,56.0,38.6,29.92,NNW,345,2.0,4.0,52,0.00,,CLR,0.00,0.00,VWS V14.01,2013-11-19 07:21:00,
2013-11-19 02:26:00,55.8,38.5,29.93,NNE,32,0.0,6.0,52,0.00,,CLR,0.00,0.00,VWS V14.01,2013-11-19 07:26:00,
2013-11-19 02:31:00,55.5,39.1,29.93,North,5,0.0,4.0,54,0.00,,CLR,0.00,0.00,VWS V14.01,2013-11-19 07:31:00,
2013-11-19 02:36:00,55.3,38.5,29.93,NNE,32,2.0,4.0,53,0.00,,CLR,0.00,0.00,VWS V14.01,2013-11-19 07:36:00,
2013-11-19 02:41:00,55.2,38.9,29.93,NE,53,1.0,6.0,54,0.00,,CLR,0.00,0.00,VWS V14.01,2013-11-19 07:41:00,
2013-11-19 02:46:00,54.9,38.6,29.93,NE,53,2.0,2.0,54,0.00,,CLR,0.00,0.00,VWS V14.01,2013-11-19 07:46:00,
2013-11-19 02:51:00,54.6,38.3,29.93,North,355,1.0,6.0,54,0.00,,CLR,0.00,0.00,VWS V14.01,2013-11-19 07:51:00,
2013-11-19 02:56:00,54.5,38.2,29.94,North,9,2.0,6.0,54,0.00,,CLR,0.00,0.00,VWS V14.01,2013-11-19 07:56:00,
2013-11-19 03:01:00,54.5,37.7,29.94,NNE,18,1.0,6.0,53,0.00,,CLR,0.00,0.00,VWS V14.01,2013-11-19 08:01:00,
2013-11-19 03:06:00,54.7,36.9,29.94,East,90,0.0,6.0,51,0.00,,CLR,0.00,0.00,VWS V14.01,2013-11-19 08:06:00,
2013-11-19 03:11:00,54.9,37.1,29.94,NNE,28,2.0,7.0,51,0.00,,CLR,0.00,0.00,VWS V14.01,2013-11-19 08:11:00,
2013-11-19 03:16:00,54.9,36.6,29.94,North,11,5.0,7.0,50,0.00,,CLR,0.00,0.00,VWS V14.01,2013-11-19 08:16:00,
2013-11-19 03:21:00,54.8,36.5,29.94,NE,44,6.0,6.0,50,0.00,,CLR,0.00,0.00,VWS V14.01,2013-11-19 08:21:00,
2013-11-19 03:26:00,54.7,36.9,29.95,ENE,62,1.0,8.0,51,0.00,,CLR,0.00,0.00,VWS V14.01,2013-11-19 08:26:00,
2013-11-19 03:31:00,54.5,36.3,29.95,North,9,4.0,7.0,50,0.00,,CLR,0.00,0.00,VWS V14.01,2013-11-19 08:31:00,
2013-11-19 03:36:00,54.4,36.7,29.95,ENE,74,1.0,4.0,51,0.00,,CLR,0.00,0.00,VWS V14.01,2013-11-19 08:36:00,
2013-11-19 03:41:00,54.2,36.0,29.95,NNE,13,1.0,5.0,50,0.00,,CLR,0.00,0.00,VWS V14.01,2013-11-19 08:41:00,
2013-11-19 03:46:00,54.1,36.4,29.95,NE,47,5.0,7.0,51,0.00,,CLR,0.00,0.00,VWS V14.01,2013-11-19 08:46:00,
2013-11-19 03:51:00,53.9,36.7,29.95,NNE,20,5.0,5.0,52,0.00,,CLR,0.00,0.00,VWS V14.01,2013-11-19 08:51:00,
2013-11-19 03:56:00,53.8,36.1,29.96,North,5,3.0,5.0,51,0.00,,CLR,0.00,0.00,VWS V14.01,2013-11-19 08:56:00,
2013-11-19 04:01:00,53.6,36.4,29.96,NNE,22,6.0,8.0,52,0.00,,CLR,0.00,0.00,VWS V14.01,2013-11-19 09:01:00,
2013-11-19 04:06:00,53.5,35.8,29.96,NE,54,3.0,6.0,51,0.00,,CLR,0.00,0.00,VWS V14.01,2013-11-19 09:06:00,
2013-11-19 04:11:00,53.4,36.2,29.96,North,355,1.0,4.0,52,0.00,,CLR,0.00,0.00,VWS V14.01,2013-11-19 09:11:00,
2013-11-19 04:16:00,53.2,36.0,29.97,ENE,57,1.0,5.0,52,0.00,,CLR,0.00,0.00,VWS V14.01,2013-11-19 09:16:00,
2013-11-19 04:21:00,53.0,35.9,29.97,North,5,3.0,4.0,52,0.00,,CLR,0.00,0.00,VWS V14.01,2013-11-19 09:21:00,
2013-11-19 04:26:00,52.8,36.2,29.97,NNE,25,1.0,3.0,53,0.00,,CLR,0.00,0.00,VWS V14.01,2013-11-19 09:26:00,
2013-11-19 04:31:00,52.6,36.0,29.97,North,360,1.0,5.0,53,0.00,,CLR,0.00,0.00,VWS V14.01,2013-11-19 09:31:00,
2013-11-19 04:36:00,52.4,36.3,29.97,NNE,24,0.0,3.0,54,0.00,,CLR,0.00,0.00,VWS V14.01,2013-11-19 09:36:00,
2013-11-19 04:41:00,52.1,36.0,29.97,NNE,18,4.0,4.0,54,0.00,,CLR,0.00,0.00,VWS V14.01,2013-11-19 09:41:00,
2013-11-19 04:46:00,52.0,36.3,29.97,NNE,23,1.0,6.0,55,0.00,,CLR,0.00,0.00,VWS V14.01,2013-11-19 09:46:00,
2013-11-19 04:51:00,51.8,36.2,29.98,NE,55,1.0,3.0,55,0.00,,CLR,0.00,0.00,VWS V14.01,2013-11-19 09:51:00,
2013-11-19 04:56:00,51.7,36.1,29.98,North,5,0.0,5.0,55,0.00,,CLR,0.00,0.00,VWS V14.01,2013-11-19 09:56:00,
2013-11-19 05:01:00,51.5,36.3,29.98,NNE,21,1.0,3.0,56,0.00,,CLR,0.00,0.00,VWS V14.01,2013-11-19 10:01:00,
2013-11-19 05:06:00,51.3,36.2,29.98,North,355,0.0,4.0,56,0.00,,CLR,0.00,0.00,VWS V14.01,2013-11-19 10:06:00,
2013-11-19 05:11:00,51.0,36.8,29.99,NE,42,3.0,4.0,58,0.00,,CLR,0.00,0.00,VWS V14.01,2013-11-19 10:11:00,
2013-11-19 05:16:00,50.8,36.1,29.99,NNE,30,2.0,2.0,57,0.00,,CLR,0.00,0.00,VWS V14.01,2013-11-19 10:16:00,
2013-11-19 05:21:00,50.6,36.4,29.99,ENE,63,4.0,6.0,58,0.00,,CLR,0.00,0.00,VWS V14.01,2013-11-19 10:21:00,
2013-11-19 05:26:00,50.5,36.3,29.99,North,351,4.0,5.0,58,0.00,,CLR,0.00,0.00,VWS V14.01,2013-11-19 10:26:00,
2013-11-19 05:31:00,50.3,36.5,30.00,NNE,21,1.0,4.0,59,0.00,,CLR,0.00,0.00,VWS V14.01,2013-11-19 10:31:00,
2013-11-19 05:36:00,50.1,36.3,30.00,NE,38,1.0,4.0,59,0.00,,CLR,0.00,0.00,VWS V14.01,2013-11-19 10:36:00,
2013-11-19 05:41:00,49.9,36.2,30.00,NE,36,2.0,4.0,59,0.00,,CLR,0.00,0.00,VWS V14.01,2013-11-19 10:41:00,
2013-11-19 05:46:00,49.7,36.8,30.00,East,94,0.0,7.0,61,0.00,,CLR,0.00,0.00,VWS V14.01,2013-11-19 10:46:00,
2013-11-19 05:51:00,49.7,36.0,30.00,North,350,0.0,4.0,59,0.00,,CLR,0.00,0.00,VWS V14.01,2013-11-19 10:51:00,
2013-11-19 05:56:00,49.5,36.6,30.01,ENE,72,2.0,3.0,61,0.00,,CLR,0.00,0.00,VWS V14.01,2013-11-19 10:56:00,
2013-11-19 06:01:00,49.5,36.2,30.01,NNE,27,0.0,5.0,60,0.00,,CLR,0.00,0.00,VWS V14.01,2013-11-19 11:01:00,
2013-11-19 06:06:00,49.4,36.1,30.01,NNE,30,2.0,4.0,60,0.00,,CLR,0.00,0.00,VWS V14.01,2013-11-19 11:06:00,
2013-11-19 06:11:00,49.2,35.5,30.01,NE,47,0.0,5.0,59,0.00,,CLR,0.00,0.00,VWS V14.01,2013-11-19 11:11:00,
2013-11-19 06:16:00,49.2,35.9,30.02,NE,35,1.0,4.0,60,0.00,,CLR,0.00,0.00,VWS V14.01,2013-11-19 11:16:00,
2013-11-19 06:21:00,49.1,35.8,30.02,NNE,22,0.0,4.0,60,0.00,,CLR,0.00,0.00,VWS V14.01,2013-11-19 11:21:00,
2013-11-19 06:26:00,49.0,35.7,30.02,NE,42,3.0,4.0,60,0.00,,CLR,0.00,0.00,VWS V14.01,2013-11-19 11:26:00,
2013-11-19 06:31:00,48.8,36.0,30.02,NE,46,1.0,3.0,61,0.00,,CLR,0.00,0.00,VWS V14.01,2013-11-19 11:31:00,
2013-11-19 06:36:00,48.4,35.6,30.03,NNE,27,0.0,5.0,61,0.00,,CLR,0.00,0.00,VWS V14.01,2013-11-19 11:36:00,
2013-11-19 06:41:00,48.3,35.5,30.03,North,5,2.0,5.0,61,0.00,,CLR,0.00,0.00,VWS V14.01,2013-11-19 11:41:00,
2013-11-19 06:46:00,48.3,35.5,30.03,ENE,65,3.0,3.0,61,0.00,,CLR,0.00,0.00,VWS V14.01,2013-11-19 11:46:00,
2013-11-19 06:51:00,48.3,35.5,30.03,North,360,0.0,4.0,61,0.00,,CLR,0.00,0.00,VWS V14.01,2013-11-19 11:51:00,
2013-11-19 06:56:00,48.2,35.0,30.03,NNE,28,3.0,5.0,60,0.00,,CLR,0.00,7.00,VWS V14.01,2013-11-19 11:56:00,
2013-11-19 07:01:00,48.1,35.3,30.04,NNE,30,2.0,4.0,61,0.00,,CLR,0.00,12.00,VWS V14.01,2013-11-19 12:01:00,
2013-11-19 07:06:00,48.1,34.9,30.04,NNE,19,0.0,5.0,60,0.00,,CLR,0.00,14.00,VWS V14.01,2013-11-19 12:06:00,
2013-11-19 07:11:00,48.2,35.0,30.04,NE,34,2.0,5.0,60,0.00,,CLR,0.00,18.00,VWS V14.01,2013-11-19 12:11:00,
2013-11-19 07:16:00,48.3,35.1,30.04,North,5,0.0,6.0,60,0.00,,CLR,0.00,18.00,VWS V14.01,2013-11-19 12:16:00,
2013-11-19 07:21:00,48.2,34.6,30.05,North,355,4.0,5.0,59,0.00,,CLR,0.00,19.00,VWS V14.01,2013-11-19 12:21:00,
2013-11-19 07:26:00,48.3,34.7,30.05,NNE,23,0.0,6.0,59,0.00,,CLR,0.00,23.00,VWS V14.01,2013-11-19 12:26:00,
2013-11-19 07:31:00,48.4,34.8,30.05,NE,38,0.0,4.0,59,0.00,,CLR,0.00,25.00,VWS V14.01,2013-11-19 12:31:00,
2013-11-19 07:36:00,48.5,34.8,30.06,NE,53,0.0,4.0,59,0.00,,CLR,0.00,26.00,VWS V14.01,2013-11-19 12:36:00,
2013-11-19 07:41:00,48.7,35.0,30.06,NNW,343,1.0,4.0,59,0.00,,CLR,0.00,28.00,VWS V14.01,2013-11-19 12:41:00,
2013-11-19 07:46:00,49.0,35.3,30.06,NNE,28,2.0,8.0,59,0.00,,CLR,0.00,32.00,VWS V14.01,2013-11-19 12:46:00,
2013-11-19 07:51:00,49.0,34.9,30.06,NE,34,2.0,5.0,58,0.00,,CLR,0.00,30.00,VWS V14.01,2013-11-19 12:51:00,
2013-11-19 07:56:00,49.0,34.9,30.06,NNE,20,3.0,4.0,58,0.00,,CLR,0.00,32.00,VWS V14.01,2013-11-19 12:56:00,
2013-11-19 08:01:00,49.2,35.1,30.06,North,355,1.0,5.0,58,0.00,,CLR,0.00,62.00,VWS V14.01,2013-11-19 13:01:00,
2013-11-19 08:06:00,49.4,34.8,30.07,NNE,30,2.0,4.0,57,0.00,,CLR,0.00,204.00,VWS V14.01,2013-11-19 13:06:00,
2013-11-19 08:11:00,49.7,34.7,30.07,NE,41,5.0,10.0,56,0.00,,CLR,0.00,236.00,VWS V14.01,2013-11-19 13:11:00,
2013-11-19 08:16:00,50.3,35.2,30.07,North,10,3.0,11.0,56,0.00,,CLR,0.00,253.00,VWS V14.01,2013-11-19 13:16:00,
2013-11-19 08:20:00,50.8,35.2,30.07,North,9,6.0,8.0,55,0.00,,CLR,0.00,271.00,VWS V14.01,2013-11-19 13:20:00,
2013-11-19 08:25:00,51.1,35.0,30.07,NE,46,4.0,8.0,54,0.00,,CLR,0.00,288.00,VWS V14.01,2013-11-19 13:25:00,
2013-11-19 08:30:00,51.3,34.8,30.07,NE,49,5.0,6.0,53,0.00,,CLR,0.00,309.00,VWS V14.01,2013-11-19 13:30:00,
2013-11-19 08:36:00,51.7,35.1,30.08,NE,41,5.0,8.0,53,0.00,,CLR,0.00,329.00,VWS V14.01,2013-11-19 13:36:00,
2013-11-19 08:41:00,51.8,34.3,30.08,NE,46,6.0,10.0,51,0.00,,CLR,0.00,348.00,VWS V14.01,2013-11-19 13:41:00,
2013-11-19 08:46:00,52.0,34.9,30.08,East,80,3.0,7.0,52,0.00,,CLR,0.00,272.00,VWS V14.01,2013-11-19 13:46:00,
2013-11-19 08:51:00,52.3,34.2,30.08,North,9,2.0,9.0,50,0.00,,CLR,0.00,374.00,VWS V14.01,2013-11-19 13:51:00,
2013-11-19 08:56:00,52.7,34.6,30.08,NNW,339,3.0,9.0,50,0.00,,CLR,0.00,350.00,VWS V14.01,2013-11-19 13:56:00,
2013-11-19 09:01:00,53.0,34.4,30.08,East,84,9.0,10.0,49,0.00,,CLR,0.00,374.00,VWS V14.01,2013-11-19 14:01:00,
2013-11-19 09:06:00,53.2,34.5,30.08,NE,49,2.0,8.0,49,0.00,,CLR,0.00,418.00,VWS V14.01,2013-11-19 14:06:00,
2013-11-19 09:10:00,53.4,33.7,30.09,NNE,30,2.0,9.0,47,0.00,,CLR,0.00,383.00,VWS V14.01,2013-11-19 14:10:00,
2013-11-19 09:15:00,53.4,33.2,30.09,NNE,17,5.0,15.0,46,0.00,,CLR,0.00,352.00,VWS V14.01,2013-11-19 14:15:00,
2013-11-19 09:20:00,54.0,33.7,30.09,NE,46,1.0,7.0,46,0.00,,CLR,0.00,434.00,VWS V14.01,2013-11-19 14:20:00,
2013-11-19 09:25:00,54.3,34.0,30.09,NE,39,3.0,8.0,46,0.00,,CLR,0.00,427.00,VWS V14.01,2013-11-19 14:25:00,
2013-11-19 09:28:00,54.5,33.6,30.09,East,82,3.0,8.0,45,0.00,,CLR,0.00,483.00,VWS V14.01,2013-11-19 14:28:00,
2013-11-19 09:33:00,54.4,32.4,30.09,ENE,68,3.0,11.0,43,0.00,,CLR,0.00,406.00,VWS V14.01,2013-11-19 14:33:00,
2013-11-19 09:38:00,54.7,33.2,30.09,ENE,65,2.0,5.0,44,0.00,,CLR,0.00,454.00,VWS V14.01,2013-11-19 14:38:00,
2013-11-19 09:43:00,55.0,32.9,30.09,ENE,78,5.0,10.0,43,0.00,,CLR,0.00,512.00,VWS V14.01,2013-11-19 14:43:00,
2013-11-19 09:48:00,55.2,31.9,30.09,ENE,66,4.0,12.0,41,0.00,,CLR,0.00,522.00,VWS V14.01,2013-11-19 14:48:00,
2013-11-19 09:53:00,55.5,32.2,30.09,ENE,76,7.0,10.0,41,0.00,,CLR,0.00,538.00,VWS V14.01,2013-11-19 14:53:00,
2013-11-19 09:58:00,55.7,32.4,30.10,SW,227,2.0,9.0,41,0.00,,CLR,0.00,552.00,VWS V14.01,2013-11-19 14:58:00,
2013-11-19 10:03:00,56.1,32.1,30.11,NE,55,7.0,11.0,40,0.00,,CLR,0.00,468.00,VWS V14.01,2013-11-19 15:03:00,
2013-11-19 10:08:00,55.9,31.3,30.10,SE,137,4.0,10.0,39,0.00,,CLR,0.00,492.00,VWS V14.01,2013-11-19 15:08:00,
2013-11-19 10:13:00,56.2,32.2,30.11,NNE,28,4.0,7.0,40,0.00,,CLR,0.00,570.00,VWS V14.01,2013-11-19 15:13:00,
2013-11-19 10:18:00,56.2,31.6,30.11,NE,49,1.0,9.0,39,0.00,,CLR,0.00,582.00,VWS V14.01,2013-11-19 15:18:00,
2013-11-19 10:23:00,56.6,32.0,30.11,ENE,61,2.0,7.0,39,0.00,,CLR,0.00,591.00,VWS V14.01,2013-11-19 15:23:00,
2013-11-19 10:28:00,56.5,31.9,30.11,ENE,69,4.0,9.0,39,0.00,,CLR,0.00,599.00,VWS V14.01,2013-11-19 15:28:00,
2013-11-19 10:33:00,56.8,31.5,30.10,East,84,6.0,8.0,38,0.00,,CLR,0.00,610.00,VWS V14.01,2013-11-19 15:33:00,
2013-11-19 10:38:00,57.0,31.7,30.11,North,355,7.0,12.0,38,0.00,,CLR,0.00,615.00,VWS V14.01,2013-11-19 15:38:00,
2013-11-19 10:43:00,57.0,31.0,30.10,NNW,346,4.0,9.0,37,0.00,,CLR,0.00,622.00,VWS V14.01,2013-11-19 15:43:00,
2013-11-19 10:48:00,56.9,31.6,30.10,NE,50,2.0,5.0,38,0.00,,CLR,0.00,629.00,VWS V14.01,2013-11-19 15:48:00,
2013-11-19 10:53:00,57.2,32.5,30.10,NNE,21,4.0,14.0,39,0.00,,CLR,0.00,638.00,VWS V14.01,2013-11-19 15:53:00,
2013-11-19 10:58:00,57.9,32.5,30.10,ENE,59,5.0,11.0,38,0.00,,CLR,0.00,638.00,VWS V14.01,2013-11-19 15:58:00,
2013-11-19 11:03:00,57.7,32.3,30.10,ENE,57,4.0,9.0,38,0.00,,CLR,0.00,645.00,VWS V14.01,2013-11-19 16:03:00,
2013-11-19 11:08:00,57.7,32.9,30.10,NE,39,6.0,9.0,39,0.00,,CLR,0.00,652.00,VWS V14.01,2013-11-19 16:08:00,
2013-11-19 11:13:00,58.0,31.9,30.10,East,82,6.0,8.0,37,0.00,,CLR,0.00,657.00,VWS V14.01,2013-11-19 16:13:00,
2013-11-19 11:18:00,58.1,32.7,30.10,ESE,102,4.0,12.0,38,0.00,,CLR,0.00,659.00,VWS V14.01,2013-11-19 16:18:00,
2013-11-19 11:23:00,58.6,33.1,30.10,NE,53,4.0,5.0,38,0.00,,CLR,0.00,663.00,VWS V14.01,2013-11-19 16:23:00,
2013-11-19 11:28:00,58.4,32.2,30.09,NE,47,3.0,8.0,37,0.00,,CLR,0.00,666.00,VWS V14.01,2013-11-19 16:28:00,
2013-11-19 11:33:00,58.8,33.3,30.10,ENE,71,10.0,17.0,38,0.00,,CLR,0.00,668.00,VWS V14.01,2013-11-19 16:33:00,
2013-11-19 11:38:00,58.7,31.8,30.09,East,83,6.0,14.0,36,0.00,,CLR,0.00,673.00,VWS V14.01,2013-11-19 16:38:00,
2013-11-19 11:43:00,58.4,32.2,30.09,East,83,13.0,13.0,37,0.00,,CLR,0.00,679.00,VWS V14.01,2013-11-19 16:43:00,
2013-11-19 11:48:00,59.1,32.9,30.09,ENE,74,4.0,5.0,37,0.00,,CLR,0.00,696.00,VWS V14.01,2013-11-19 16:48:00,
2013-11-19 11:53:00,59.4,32.5,30.09,East,96,10.0,14.0,36,0.00,,CLR,0.00,701.00,VWS V14.01,2013-11-19 16:53:00,
2013-11-19 11:58:00,59.0,32.1,30.09,East,90,9.0,10.0,36,0.00,,CLR,0.00,696.00,VWS V14.01,2013-11-19 16:58:00,
2013-11-19 12:03:00,58.8,31.9,30.09,NNE,22,7.0,8.0,36,0.00,,CLR,0.00,696.00,VWS V14.01,2013-11-19 17:03:00,
2013-11-19 12:08:00,59.1,31.5,30.09,East,91,1.0,6.0,35,0.00,,CLR,0.00,677.00,VWS V14.01,2013-11-19 17:08:00,
2013-11-19 12:13:00,59.4,32.5,30.09,North,5,2.0,4.0,36,0.00,,CLR,0.00,745.00,VWS V14.01,2013-11-19 17:13:00,
2013-11-19 12:18:00,59.9,33.6,30.09,NE,49,3.0,5.0,37,0.00,,CLR,0.00,756.00,VWS V14.01,2013-11-19 17:18:00,
2013-11-19 12:23:00,59.8,32.8,30.09,ESE,107,2.0,6.0,36,0.00,,CLR,0.00,742.00,VWS V14.01,2013-11-19 17:23:00,
2013-11-19 12:28:00,60.9,33.8,30.08,East,94,5.0,5.0,36,0.00,,CLR,0.00,719.00,VWS V14.01,2013-11-19 17:28:00,
2013-11-19 12:33:00,60.7,32.2,30.08,NE,40,2.0,9.0,34,0.00,,CLR,0.00,703.00,VWS V14.01,2013-11-19 17:33:00,
2013-11-19 12:35:00,60.4,31.9,30.08,NNE,24,1.0,12.0,34,0.00,,CLR,0.00,698.00,VWS V14.01,2013-11-19 17:35:00,
2013-11-19 12:40:00,60.3,31.8,30.08,NE,43,6.0,9.0,34,0.00,,CLR,0.00,679.00,VWS V14.01,2013-11-19 17:40:00,
2013-11-19 12:45:00,60.1,32.4,30.08,East,82,2.0,9.0,35,0.00,,CLR,0.00,580.00,VWS V14.01,2013-11-19 17:45:00,
2013-11-19 12:50:00,59.5,31.9,30.08,ENE,66,7.0,8.0,35,0.00,,CLR,0.00,603.00,VWS V14.01,2013-11-19 17:50:00,
2013-11-19 12:55:00,60.0,32.3,30.08,ENE,69,4.0,8.0,35,0.00,,CLR,0.00,664.00,VWS V14.01,2013-11-19 17:55:00,
2013-11-19 13:00:00,60.8,33.7,30.08,ENE,76,3.0,7.0,36,0.00,,CLR,0.00,666.00,VWS V14.01,2013-11-19 18:00:00,
2013-11-19 13:05:00,60.3,32.6,30.08,ENE,76,4.0,9.0,35,0.00,,CLR,0.00,673.00,VWS V14.01,2013-11-19 18:05:00,
2013-11-19 13:10:00,60.2,32.5,30.07,ENE,57,5.0,13.0,35,0.00,,CLR,0.00,654.00,VWS V14.01,2013-11-19 18:10:00,
2013-11-19 13:15:00,60.3,32.6,30.08,ENE,75,3.0,8.0,35,0.00,,CLR,0.00,645.00,VWS V14.01,2013-11-19 18:15:00,
2013-11-19 13:20:00,60.1,32.4,30.07,ENE,74,7.0,9.0,35,0.00,,CLR,0.00,640.00,VWS V14.01,2013-11-19 18:20:00,
2013-11-19 13:25:00,60.2,31.8,30.07,NE,40,2.0,8.0,34,0.00,,CLR,0.00,531.00,VWS V14.01,2013-11-19 18:25:00,
2013-11-19 13:30:00,60.2,31.8,30.07,ENE,66,5.0,7.0,34,0.00,,CLR,0.00,629.00,VWS V14.01,2013-11-19 18:30:00,
2013-11-19 13:35:00,60.3,31.8,30.07,East,96,5.0,9.0,34,0.00,,CLR,0.00,647.00,VWS V14.01,2013-11-19 18:35:00,
2013-11-19 13:40:00,60.0,31.6,30.07,East,92,7.0,10.0,34,0.00,,CLR,0.00,631.00,VWS V14.01,2013-11-19 18:40:00,
2013-11-19 13:45:00,60.1,31.7,30.07,NNE,27,3.0,7.0,34,0.00,,CLR,0.00,601.00,VWS V14.01,2013-11-19 18:45:00,
2013-11-19 13:50:00,60.3,32.6,30.07,East,86,2.0,6.0,35,0.00,,CLR,0.00,559.00,VWS V14.01,2013-11-19 18:50:00,
2013-11-19 13:55:00,60.3,32.6,30.06,North,355,3.0,6.0,35,0.00,,CLR,0.00,615.00,VWS V14.01,2013-11-19 18:55:00,
2013-11-19 14:00:00,61.0,32.5,30.06,East,92,5.0,6.0,34,0.00,,CLR,0.00,561.00,VWS V14.01,2013-11-19 19:00:00,
2013-11-19 14:05:00,60.8,32.3,30.06,ENE,65,4.0,11.0,34,0.00,,CLR,0.00,563.00,VWS V14.01,2013-11-19 19:05:00,
2013-11-19 14:10:00,60.6,32.1,30.06,East,80,5.0,8.0,34,0.00,,CLR,0.00,352.00,VWS V14.01,2013-11-19 19:10:00,
2013-11-19 14:15:00,60.3,32.6,30.06,East,98,6.0,6.0,35,0.00,,CLR,0.00,585.00,VWS V14.01,2013-11-19 19:15:00,
2013-11-19 14:20:00,60.7,32.2,30.06,NNE,28,3.0,10.0,34,0.00,,CLR,0.00,364.00,VWS V14.01,2013-11-19 19:20:00,
2013-11-19 14:25:00,60.1,32.4,30.06,ENE,58,3.0,6.0,35,0.00,,CLR,0.00,315.00,VWS V14.01,2013-11-19 19:25:00,
2013-11-19 14:30:00,60.4,31.9,30.06,ENE,59,2.0,8.0,34,0.00,,CLR,0.00,461.00,VWS V14.01,2013-11-19 19:30:00,
2013-11-19 14:35:00,60.0,34.3,30.06,ENE,59,3.0,8.0,38,0.00,,CLR,0.00,257.00,VWS V14.01,2013-11-19 19:35:00,
2013-11-19 14:40:00,59.2,34.9,30.06,East,83,3.0,5.0,40,0.00,,CLR,0.00,445.00,VWS V14.01,2013-11-19 19:40:00,
2013-11-19 14:45:00,59.0,36.0,30.06,ENE,74,3.0,5.0,42,0.00,,CLR,0.00,406.00,VWS V14.01,2013-11-19 19:45:00,
2013-11-19 14:50:00,60.5,33.4,30.06,ENE,59,1.0,8.0,36,0.00,,CLR,0.00,513.00,VWS V14.01,2013-11-19 19:50:00,
2013-11-19 14:55:00,60.8,36.3,30.06,ESE,107,4.0,5.0,40,0.00,,CLR,0.00,487.00,VWS V14.01,2013-11-19 19:55:00,
2013-11-19 15:00:00,60.9,35.8,30.06,East,86,3.0,6.0,39,0.00,,CLR,0.00,462.00,VWS V14.01,2013-11-19 20:00:00,
2013-11-19 15:05:00,61.0,33.2,30.06,ENE,70,4.0,6.0,35,0.00,,CLR,0.00,408.00,VWS V14.01,2013-11-19 20:05:00,
2013-11-19 15:10:00,61.2,33.3,30.06,NE,49,5.0,9.0,35,0.00,,CLR,0.00,318.00,VWS V14.01,2013-11-19 20:10:00,
2013-11-19 15:15:00,61.0,33.2,30.06,North,351,1.0,6.0,35,0.00,,CLR,0.00,366.00,VWS V14.01,2013-11-19 20:15:00,
2013-11-19 15:20:00,60.8,33.0,30.07,ENE,73,2.0,7.0,35,0.00,,CLR,0.00,346.00,VWS V14.01,2013-11-19 20:20:00,
2013-11-19 15:25:00,60.6,32.1,30.07,NNE,32,2.0,8.0,34,0.00,,CLR,0.00,325.00,VWS V14.01,2013-11-19 20:25:00,
2013-11-19 15:30:00,60.3,31.1,30.07,North,5,5.0,7.0,33,0.00,,CLR,0.00,279.00,VWS V14.01,2013-11-19 20:30:00,
2013-11-19 15:35:00,60.2,32.5,30.08,NNE,25,2.0,7.0,35,0.00,,CLR,0.00,287.00,VWS V14.01,2013-11-19 20:35:00,
2013-11-19 15:40:00,60.1,33.1,30.07,ENE,72,2.0,7.0,36,0.00,,CLR,0.00,267.00,VWS V14.01,2013-11-19 20:40:00,
2013-11-19 15:45:00,60.0,32.3,30.08,East,88,2.0,7.0,35,0.00,,CLR,0.00,246.00,VWS V14.01,2013-11-19 20:45:00,
2013-11-19 15:50:00,60.1,33.1,30.08,NE,49,4.0,7.0,36,0.00,,CLR,0.00,227.00,VWS V14.01,2013-11-19 20:50:00,
2013-11-19 15:55:00,60.0,32.3,30.08,NE,53,2.0,6.0,35,0.00,,CLR,0.00,206.00,VWS V14.01,2013-11-19 20:55:00,
2013-11-19 16:00:00,60.2,33.8,30.08,ENE,65,1.0,5.0,37,0.00,,CLR,0.00,185.00,VWS V14.01,2013-11-19 21:00:00,
2013-11-19 16:05:00,60.1,32.4,30.08,ENE,57,0.0,3.0,35,0.00,,CLR,0.00,163.00,VWS V14.01,2013-11-19 21:05:00,
2013-11-19 16:10:00,59.9,32.2,30.08,East,80,5.0,9.0,35,0.00,,CLR,0.00,144.00,VWS V14.01,2013-11-19 21:10:00,
2013-11-19 16:15:00,59.6,32.6,30.08,NE,56,4.0,8.0,36,0.00,,CLR,0.00,123.00,VWS V14.01,2013-11-19 21:15:00,
2013-11-19 16:20:00,59.5,32.5,30.08,NE,44,2.0,7.0,36,0.00,,CLR,0.00,104.00,VWS V14.01,2013-11-19 21:20:00,
2013-11-19 16:25:00,59.1,32.9,30.08,ESE,104,7.0,7.0,37,0.00,,CLR,0.00,88.00,VWS V14.01,2013-11-19 21:25:00,
2013-11-19 16:30:00,58.7,32.5,30.09,East,86,3.0,5.0,37,0.00,,CLR,0.00,25.00,VWS V14.01,2013-11-19 21:30:00,
2013-11-19 16:35:00,58.4,32.2,30.09,ENE,74,2.0,5.0,37,0.00,,CLR,0.00,37.00,VWS V14.01,2013-11-19 21:35:00,
2013-11-19 16:40:00,58.0,32.6,30.09,ENE,60,1.0,4.0,38,0.00,,CLR,0.00,19.00,VWS V14.01,2013-11-19 21:40:00,
2013-11-19 16:45:00,57.6,32.8,30.09,ENE,72,3.0,3.0,39,0.00,,CLR,0.00,18.00,VWS V14.01,2013-11-19 21:45:00,
2013-11-19 16:50:00,57.2,33.7,30.10,ENE,57,2.0,3.0,41,0.00,,CLR,0.00,16.00,VWS V14.01,2013-11-19 21:50:00,
2013-11-19 16:55:00,56.9,32.8,30.09,ENE,59,0.0,2.0,40,0.00,,CLR,0.00,12.00,VWS V14.01,2013-11-19 21:55:00,
2013-11-19 17:00:00,56.6,33.8,30.10,NE,56,1.0,3.0,42,0.00,,CLR,0.00,11.00,VWS V14.01,2013-11-19 22:00:00,
2013-11-19 17:05:00,56.4,33.6,30.10,NE,53,1.0,6.0,42,0.00,,CLR,0.00,7.00,VWS V14.01,2013-11-19 22:05:00,
2013-11-19 17:10:00,56.0,33.8,30.11,NE,44,0.0,3.0,43,0.00,,CLR,0.00,5.00,VWS V14.01,2013-11-19 22:10:00,
2013-11-19 17:15:00,55.7,33.6,30.11,NE,41,0.0,2.0,43,0.00,,CLR,0.00,0.00,VWS V14.01,2013-11-19 22:15:00,
2013-11-19 17:20:00,55.2,33.7,30.11,NE,48,1.0,4.0,44,0.00,,CLR,0.00,0.00,VWS V14.01,2013-11-19 22:20:00,
2013-11-19 17:25:00,54.9,34.0,30.11,NE,46,1.0,2.0,45,0.00,,CLR,0.00,0.00,VWS V14.01,2013-11-19 22:25:00,
2013-11-19 17:30:00,54.5,33.6,30.11,East,88,0.0,4.0,45,0.00,,CLR,0.00,0.00,VWS V14.01,2013-11-19 22:30:00,
2013-11-19 17:35:00,54.4,34.6,30.12,ENE,57,2.0,3.0,47,0.00,,CLR,0.00,0.00,VWS V14.01,2013-11-19 22:35:00,
2013-11-19 17:40:00,54.1,33.8,30.12,NE,48,1.0,2.0,46,0.00,,CLR,0.00,0.00,VWS V14.01,2013-11-19 22:40:00,
2013-11-19 17:45:00,53.9,34.2,30.12,ENE,76,0.0,2.0,47,0.00,,CLR,0.00,0.00,VWS V14.01,2013-11-19 22:45:00,
2013-11-19 17:50:00,53.7,34.0,30.12,East,80,0.0,2.0,47,0.00,,CLR,0.00,0.00,VWS V14.01,2013-11-19 22:50:00,
2013-11-19 17:55:00,53.5,33.8,30.12,ENE,75,0.0,2.0,47,0.00,,CLR,0.00,0.00,VWS V14.01,2013-11-19 22:55:00,
2013-11-19 18:00:00,53.2,34.0,30.13,ENE,63,1.0,2.0,48,0.00,,CLR,0.00,0.00,VWS V14.01,2013-11-19 23:00:00,
2013-11-19 18:05:00,53.2,34.0,30.13,ENE,69,3.0,3.0,48,0.00,,CLR,0.00,0.00,VWS V14.01,2013-11-19 23:05:00,
2013-11-19 18:10:00,53.2,34.0,30.13,ENE,59,1.0,3.0,48,0.00,,CLR,0.00,0.00,VWS V14.01,2013-11-19 23:10:00,
2013-11-19 18:15:00,53.3,34.1,30.13,ENE,61,2.0,4.0,48,0.00,,CLR,0.00,0.00,VWS V14.01,2013-11-19 23:15:00,
2013-11-19 18:20:00,53.2,34.5,30.13,ENE,64,3.0,3.0,49,0.00,,CLR,0.00,0.00,VWS V14.01,2013-11-19 23:20:00,
2013-11-19 18:25:00,53.1,34.0,30.14,ENE,71,1.0,5.0,48,0.00,,CLR,0.00,0.00,VWS V14.01,2013-11-19 23:25:00,
2013-11-19 18:30:00,53.2,34.0,30.14,ENE,63,2.0,4.0,48,0.00,,CLR,0.00,0.00,VWS V14.01,2013-11-19 23:30:00,
2013-11-19 18:35:00,53.1,34.0,30.14,East,87,3.0,4.0,48,0.00,,CLR,0.00,0.00,VWS V14.01,2013-11-19 23:35:00,
2013-11-19 18:40:00,53.2,34.0,30.14,ENE,77,2.0,3.0,48,0.00,,CLR,0.00,0.00,VWS V14.01,2013-11-19 23:40:00,
2013-11-19 18:45:00,53.2,34.0,30.14,ENE,70,2.0,5.0,48,0.00,,CLR,0.00,0.00,VWS V14.01,2013-11-19 23:45:00,
2013-11-19 18:50:00,53.0,33.8,30.14,NNE,30,1.0,3.0,48,0.00,,CLR,0.00,0.00,VWS V14.01,2013-11-19 23:50:00,
2013-11-19 18:55:00,52.9,33.8,30.14,NE,54,1.0,3.0,48,0.00,,CLR,0.00,0.00,VWS V14.01,2013-11-19 23:55:00,
2013-11-19 19:00:00,52.7,33.6,30.14,ENE,72,0.0,4.0,48,0.00,,CLR,0.00,0.00,VWS V14.01,2013-11-20 00:00:00,
2013-11-19 19:05:00,52.6,33.5,30.14,NE,52,3.0,4.0,48,0.00,,CLR,0.00,0.00,VWS V14.01,2013-11-20 00:05:00,
2013-11-19 19:10:00,52.5,33.9,30.14,NE,53,1.0,4.0,49,0.00,,CLR,0.00,0.00,VWS V14.01,2013-11-20 00:10:00,
2013-11-19 19:15:00,52.3,33.7,30.14,ENE,59,3.0,3.0,49,0.00,,CLR,0.00,0.00,VWS V14.01,2013-11-20 00:15:00,
2013-11-19 19:20:00,52.2,33.6,30.14,NE,53,0.0,3.0,49,0.00,,CLR,0.00,0.00,VWS V14.01,2013-11-20 00:20:00,
2013-11-19 19:25:00,52.0,34.0,30.15,ENE,63,3.0,5.0,50,0.00,,CLR,0.00,0.00,VWS V14.01,2013-11-20 00:25:00,
2013-11-19 19:30:00,51.8,34.3,30.15,ENE,67,1.0,3.0,51,0.00,,CLR,0.00,0.00,VWS V14.01,2013-11-20 00:30:00,
2013-11-19 19:35:00,51.7,34.2,30.14,NE,53,2.0,5.0,51,0.00,,CLR,0.00,0.00,VWS V14.01,2013-11-20 00:35:00,
2013-11-19 19:40:00,51.7,34.2,30.15,NNE,20,1.0,4.0,51,0.00,,CLR,0.00,0.00,VWS V14.01,2013-11-20 00:40:00,
2013-11-19 19:45:00,51.8,33.8,30.15,NNE,32,1.0,6.0,50,0.00,,CLR,0.00,0.00,VWS V14.01,2013-11-20 00:45:00,
2013-11-19 19:50:00,51.9,33.9,30.15,ENE,63,3.0,6.0,50,0.00,,CLR,0.00,0.00,VWS V14.01,2013-11-20 00:50:00,
2013-11-19 19:55:00,52.0,33.5,30.15,ENE,74,0.0,4.0,49,0.00,,CLR,0.00,0.00,VWS V14.01,2013-11-20 00:55:00,
2013-11-19 20:00:00,52.2,33.1,30.15,NE,51,3.0,7.0,48,0.00,,CLR,0.00,0.00,VWS V14.01,2013-11-20 01:00:00,
2013-11-19 20:05:00,52.4,33.3,30.15,ENE,71,2.0,5.0,48,0.00,,CLR,0.00,0.00,VWS V14.01,2013-11-20 01:05:00,
2013-11-19 20:10:00,52.4,33.8,30.15,ENE,76,2.0,7.0,49,0.00,,CLR,0.00,0.00,VWS V14.01,2013-11-20 01:10:00,
2013-11-19 20:15:00,52.5,33.4,30.15,ESE,115,2.0,7.0,48,0.00,,CLR,0.00,0.00,VWS V14.01,2013-11-20 01:15:00,
2013-11-19 20:20:00,52.7,33.6,30.15,East,94,9.0,10.0,48,0.00,,CLR,0.00,0.00,VWS V14.01,2013-11-20 01:20:00,
2013-11-19 20:25:00,52.8,34.2,30.15,East,80,3.0,8.0,49,0.00,,CLR,0.00,0.00,VWS V14.01,2013-11-20 01:25:00,
2013-11-19 20:30:00,52.8,34.2,30.16,NNE,12,3.0,9.0,49,0.00,,CLR,0.00,0.00,VWS V14.01,2013-11-20 01:30:00,
2013-11-19 20:35:00,52.7,33.0,30.16,East,94,11.0,13.0,47,0.00,,CLR,0.00,0.00,VWS V14.01,2013-11-20 01:35:00,
2013-11-19 20:40:00,52.6,33.0,30.17,NE,43,3.0,11.0,47,0.00,,CLR,0.00,0.00,VWS V14.01,2013-11-20 01:40:00,
2013-11-19 20:45:00,52.3,32.7,30.17,East,79,8.0,10.0,47,0.00,,CLR,0.00,0.00,VWS V14.01,2013-11-20 01:45:00,
2013-11-19 20:50:00,52.1,33.0,30.17,ENE,59,2.0,8.0,48,0.00,,CLR,0.00,0.00,VWS V14.01,2013-11-20 01:50:00,
2013-11-19 20:55:00,52.0,32.9,30.18,East,91,11.0,11.0,48,0.00,,CLR,0.00,0.00,VWS V14.01,2013-11-20 01:55:00,
2013-11-19 21:00:00,51.9,33.4,30.18,East,93,5.0,8.0,49,0.00,,CLR,0.00,0.00,VWS V14.01,2013-11-20 02:00:00,
2013-11-19 21:05:00,51.8,33.8,30.18,ENE,71,3.0,8.0,50,0.00,,CLR,0.00,0.00,VWS V14.01,2013-11-20 02:05:00,
2013-11-19 21:10:00,51.6,33.6,30.18,ENE,64,1.0,8.0,50,0.00,,CLR,0.00,0.00,VWS V14.01,2013-11-20 02:10:00,
2013-11-19 21:15:00,51.5,33.5,30.18,ESE,103,3.0,6.0,50,0.00,,CLR,0.00,0.00,VWS V14.01,2013-11-20 02:15:00,
2013-11-19 21:20:00,51.5,33.5,30.18,ENE,58,11.0,11.0,50,0.00,,CLR,0.00,0.00,VWS V14.01,2013-11-20 02:20:00,
2013-11-19 21:25:00,51.4,33.4,30.18,ENE,61,2.0,9.0,50,0.00,,CLR,0.00,0.00,VWS V14.01,2013-11-20 02:25:00,
2013-11-19 21:30:00,51.3,33.3,30.18,NE,46,5.0,9.0,50,0.00,,CLR,0.00,0.00,VWS V14.01,2013-11-20 02:30:00,
2013-11-19 21:35:00,51.2,33.2,30.19,ENE,63,2.0,5.0,50,0.00,,CLR,0.00,0.00,VWS V14.01,2013-11-20 02:35:00,
2013-11-19 21:40:00,51.2,33.7,30.19,East,95,5.0,9.0,51,0.00,,CLR,0.00,0.00,VWS V14.01,2013-11-20 02:40:00,
2013-11-19 21:45:00,51.0,33.5,30.19,NE,54,2.0,8.0,51,0.00,,CLR,0.00,0.00,VWS V14.01,2013-11-20 02:45:00,
2013-11-19 21:50:00,50.9,33.4,30.19,NE,46,3.0,8.0,51,0.00,,CLR,0.00,0.00,VWS V14.01,2013-11-20 02:50:00,
2013-11-19 21:55:00,51.0,33.5,30.19,ENE,71,4.0,8.0,51,0.00,,CLR,0.00,0.00,VWS V14.01,2013-11-20 02:55:00,
2013-11-19 22:00:00,51.0,33.5,30.19,ENE,60,1.0,7.0,51,0.00,,CLR,0.00,0.00,VWS V14.01,2013-11-20 03:00:00,
2013-11-19 22:05:00,50.8,33.3,30.20,ENE,74,3.0,9.0,51,0.00,,CLR,0.00,0.00,VWS V14.01,2013-11-20 03:05:00,
2013-11-19 22:10:00,50.6,33.6,30.20,NE,46,1.0,9.0,52,0.00,,CLR,0.00,0.00,VWS V14.01,2013-11-20 03:10:00,
2013-11-19 22:15:00,50.5,33.5,30.20,ESE,104,4.0,8.0,52,0.00,,SKC,0.00,0.00,VWS V14.01,2013-11-20 03:15:00,
2013-11-19 22:20:00,50.2,33.7,30.20,ENE,66,3.0,5.0,53,0.00,,SKC,0.00,0.00,VWS V14.01,2013-11-20 03:20:00,
2013-11-19 22:25:00,50.0,33.6,30.20,ENE,67,2.0,8.0,53,0.00,,SKC,0.00,0.00,VWS V14.01,2013-11-20 03:25:00,
2013-11-19 22:30:00,49.8,33.8,30.20,NE,55,2.0,5.0,54,0.00,,SKC,0.00,0.00,VWS V14.01,2013-11-20 03:30:00,
2013-11-19 22:35:00,49.6,34.1,30.20,ENE,59,2.0,7.0,55,0.00,,SKC,0.00,0.00,VWS V14.01,2013-11-20 03:35:00,
2013-11-19 22:40:00,49.5,34.5,30.20,NE,37,4.0,11.0,56,0.00,,SKC,0.00,0.00,VWS V14.01,2013-11-20 03:40:00,
2013-11-19 22:45:00,49.4,34.8,30.20,NE,43,5.0,10.0,57,0.00,,SKC,0.00,0.00,VWS V14.01,2013-11-20 03:45:00,
2013-11-19 22:50:00,49.4,34.8,30.20,ENE,71,5.0,6.0,57,0.00,,SKC,0.00,0.00,VWS V14.01,2013-11-20 03:50:00,
2013-11-19 22:55:00,49.3,34.7,30.20,NE,53,2.0,5.0,57,0.00,,SKC,0.00,0.00,VWS V14.01,2013-11-20 03:55:00,
2013-11-19 23:00:00,49.1,34.5,30.20,East,80,2.0,7.0,57,0.00,,SKC,0.00,0.00,VWS V14.01,2013-11-20 04:00:00,
2013-11-19 23:05:00,48.9,34.8,30.21,NE,54,3.0,9.0,58,0.00,,CLR,0.00,0.00,VWS V14.01,2013-11-20 04:05:00,
2013-11-19 23:10:00,48.7,34.6,30.21,NNE,23,2.0,6.0,58,0.00,,CLR,0.00,0.00,VWS V14.01,2013-11-20 04:10:00,
2013-11-19 23:15:00,48.5,34.8,30.21,East,86,1.0,7.0,59,0.00,,CLR,0.00,0.00,VWS V14.01,2013-11-20 04:15:00,
2013-11-19 23:20:00,48.3,34.7,30.21,NE,42,1.0,5.0,59,0.00,,CLR,0.00,0.00,VWS V14.01,2013-11-20 04:20:00,
2013-11-19 23:25:00,47.9,34.7,30.21,NE,50,3.0,5.0,60,0.00,,CLR,0.00,0.00,VWS V14.01,2013-11-20 04:25:00,
2013-11-19 23:30:00,47.7,34.5,30.21,NE,36,5.0,7.0,60,0.00,,CLR,0.00,0.00,VWS V14.01,2013-11-20 04:30:00,
2013-11-19 23:35:00,47.6,34.8,30.21,East,82,5.0,6.0,61,0.00,,CLR,0.00,0.00,VWS V14.01,2013-11-20 04:35:00,
2013-11-19 23:40:00,47.5,34.7,30.21,ENE,71,2.0,7.0,61,0.00,,CLR,0.00,0.00,VWS V14.01,2013-11-20 04:40:00,
2013-11-19 23:45:00,47.4,35.0,30.22,ENE,59,3.0,4.0,62,0.00,,CLR,0.00,0.00,VWS V14.01,2013-11-20 04:45:00,
2013-11-19 23:50:00,47.2,34.9,30.22,ENE,57,1.0,5.0,62,0.00,,CLR,0.00,0.00,VWS V14.01,2013-11-20 04:50:00,
2013-11-19 23:55:00,47.2,34.9,30.23,NE,49,1.0,4.0,62,0.00,,CLR,0.00,0.00,VWS V14.01,2013-11-20 04:55:00,